Regional Weather Roundup
Issued by NWS Albany, NY

Home | Current Version | Previous Version | Text Only | Print | Product List | Glossary On
Versions: 1 2 3 4 5 6 7 8 9 10 11 12 13 14 15 16 17 18 19 20 21 22 23 24 25 26 27 28 29 30 31 32 33 34 35 36 37 38 39 40 41 42 43 44 45 46 47 48 49 50
000
ASUS41 KALY 041010
RWRALY

NEW YORK STATE HOURLY WEATHER ROUNDUP
NATIONAL WEATHER SERVICE ALBANY NY
600 AM EDT TUE AUG 04 2015

NOTE: "FAIR" INDICATES FEW OR NO CLOUDS BELOW 12,000 FEET WITH NO
SIGNIFICANT WEATHER AND/OR NO OBSTRUCTIONS TO VISIBILITY.

NYZ032-033-038>043-046>054-057>066-NYZ062>081-041100-
EAST


CITY           SKY/WX    TMP DP  RH WIND       PRES   REMARKS
ALBANY         FOG       67  64  90 CALM      29.84R VSB 1
GLENS FALLS    CLOUDY    65  63  93 CALM      29.83R FOG
POUGHKEEPSIE   CLOUDY    69  66  90 NW5       29.84R
NEWBURGH       MOCLDY    66  66 100 NW7       29.86R
MONTGOMERY     LGT RAIN  66  65  96 MISG      29.85R
WHITE PLAINS   CLOUDY    70  67  90 VRB3      29.84R
ISLIP          CLOUDY    69  65  86 SE6       29.83F
NEW YORK CITY  CLOUDY    72  65  78 S7        29.84R
CENTRAL PARK   CLOUDY    69  66  90 SW3       29.87S
$$

NYZ005>009-017-018-044>046-055-056-041100-
CENTRAL


CITY           SKY/WX    TMP DP  RH WIND       PRES   REMARKS
FULTON         MOCLDY    60  58  92 CALM      29.83R
SYRACUSE       PTCLDY    63  60  90 CALM      29.83R
ROME           MOCLDY    59  58  96 SE5       29.86R
ELMIRA         PTCLDY    56  56 100 CALM      29.86R
BINGHAMTON     MOCLDY    63  59  87 CALM      29.88R
MONTICELLO     CLOUDY    64  63  94 CALM      29.88F
$$

NYZ026>034-041>043-041100-
NORTH


CITY           SKY/WX    TMP DP  RH WIND       PRES   REMARKS
WATERTOWN      MOCLDY    63  61  93 S6        29.81R
FORT DRUM      NOT AVBL
MASSENA        CLOUDY    63  58  83 S5        29.79R
SARANAC LAKE   MOCLDY    54  53  97 CALM      29.83R
PLATTSBURGH    CLEAR     58  57  97 CALM      29.79R
$$

NYZ001>004-010>016-019>021-041100-
WEST


CITY           SKY/WX    TMP DP  RH WIND       PRES   REMARKS
NIAGARA FALLS  CLOUDY    63  59  87 CALM      29.84R
BUFFALO        MOCLDY    64  60  87 S6        29.85R
DUNKIRK        MOCLDY    62  61  96 S5        29.86R
JAMESTOWN      CLOUDY    59  57  94 CALM      29.90R
WELLSVILLE     PTCLDY    57  55  93 W5        29.92R
ROCHESTER      PTCLDY    61  59  93 SW5       29.85R
PENN YAN       CLEAR     63  61  93 SW6       29.87R
$$

             KEY
       WCI = WIND CHILL INDEX
       VSB = VISIBILITY
       HX  = HEAT INDEX
$$


USA.gov is the U.S. government's official web portal to all federal, state and local government web resources and services.